Hourly Weather Golcza

Today, 17 May, Monday

Time Temperature Precipitation Wind Pressure Humidity
00:00 +8°C° 0 mm 2 mps 743 mmHg 90%
01:00 +8°C° 0 mm 2 mps 743 mmHg 92%
02:00 +8°C° 0 mm 2 mps 743 mmHg 93%
03:00 +7°C° 0 mm 2 mps 743 mmHg 94%
04:00 +7°C° 0 mm 2 mps 743 mmHg 95%
05:00 +9°C° 0 mm 2 mps 743 mmHg 91%
06:00 +10°C° 0 mm 2 mps 744 mmHg 87%
07:00 +13°C° 0 mm 2 mps 744 mmHg 84%
08:00 +14°C° 0.2 mm 2 mps 744 mmHg 78%
09:00 +14°C° 0.2 mm 3 mps 744 mmHg 72%
10:00 +17°C° 0.2 mm 3 mps 744 mmHg 67%
11:00 +17°C° 0.6 mm 3 mps 744 mmHg 66%
12:00 +17°C° 0.6 mm 3 mps 744 mmHg 65%
13:00 +18°C° 0.6 mm 3 mps 744 mmHg 64%
14:00 +17°C° 0.5 mm 3 mps 744 mmHg 65%
15:00 +17°C° 0.5 mm 3 mps 744 mmHg 66%
16:00 +17°C° 0.5 mm 3 mps 744 mmHg 66%
17:00 +16°C° 0.2 mm 2 mps 745 mmHg 72%
18:00 +15°C° 0.2 mm 2 mps 745 mmHg 77%
19:00 +14°C° 0.2 mm 2 mps 745 mmHg 83%
20:00 +13°C° 0 mm 2 mps 745 mmHg 85%
21:00 +12°C° 0 mm 2 mps 745 mmHg 86%
22:00 +12°C° 0 mm 2 mps 746 mmHg 88%
23:00 +10°C° 0 mm 2 mps 746 mmHg 90%

Tomorrow, 18 May, Tuesday

Time Temperature Precipitation Wind Pressure Humidity
00:00 +10°C° 0 mm 2 mps 746 mmHg 92%
01:00 +9°C° 0 mm 2 mps 746 mmHg 94%
02:00 +9°C° 0 mm 2 mps 746 mmHg 94%
03:00 +9°C° 0 mm 2 mps 746 mmHg 95%
04:00 +9°C° 0 mm 2 mps 747 mmHg 96%
05:00 +9°C° 0 mm 3 mps 747 mmHg 93%
06:00 +10°C° 0 mm 3 mps 747 mmHg 90%
07:00 +11°C° 0 mm 3 mps 747 mmHg 86%
08:00 +12°C° 0.1 mm 3 mps 747 mmHg 81%
09:00 +13°C° 0.1 mm 3 mps 748 mmHg 76%
10:00 +14°C° 0.1 mm 4 mps 748 mmHg 70%
11:00 +14°C° 0.5 mm 4 mps 748 mmHg 71%
12:00 +15°C° 0.5 mm 4 mps 748 mmHg 71%
13:00 +15°C° 0.5 mm 4 mps 748 mmHg 72%
14:00 +14°C° 0.7 mm 4 mps 748 mmHg 74%
15:00 +14°C° 0.7 mm 4 mps 748 mmHg 76%
16:00 +14°C° 0.7 mm 4 mps 748 mmHg 78%
17:00 +13°C° 0.6 mm 3 mps 749 mmHg 82%
18:00 +12°C° 0.6 mm 3 mps 749 mmHg 86%
19:00 +12°C° 0.6 mm 3 mps 749 mmHg 89%
20:00 +12°C° 0 mm 2 mps 749 mmHg 91%
21:00 +9°C° 0 mm 2 mps 750 mmHg 93%
22:00 +8°C° 0 mm 2 mps 750 mmHg 95%
23:00 +8°C° 0 mm 2 mps 750 mmHg 95%

Day after tomorrow, 19 May, Wednesday

Time Temperature Precipitation Wind Pressure Humidity
00:00 +8°C° 0 mm 2 mps 750 mmHg 95%
01:00 +8°C° 0 mm 1 mps 750 mmHg 95%
02:00 +7°C° 0 mm 2 mps 750 mmHg 95%
03:00 +7°C° 0 mm 2 mps 750 mmHg 96%
04:00 +7°C° 0 mm 2 mps 750 mmHg 96%
05:00 +8°C° 0 mm 2 mps 751 mmHg 94%
06:00 +9°C° 0 mm 2 mps 751 mmHg 91%
07:00 +10°C° 0 mm 2 mps 751 mmHg 89%
08:00 +11°C° 0.3 mm 3 mps 751 mmHg 87%
09:00 +11°C° 0.3 mm 3 mps 752 mmHg 84%
10:00 +12°C° 0.3 mm 4 mps 752 mmHg 82%
11:00 +12°C° 0.4 mm 4 mps 752 mmHg 81%
12:00 +12°C° 0.4 mm 4 mps 752 mmHg 81%
13:00 +12°C° 0.4 mm 4 mps 752 mmHg 81%
14:00 +11°C° 0.3 mm 4 mps 752 mmHg 83%
15:00 +11°C° 0.3 mm 3 mps 753 mmHg 85%
16:00 +10°C° 0.3 mm 3 mps 753 mmHg 86%
17:00 +10°C° 0 mm 3 mps 753 mmHg 85%
18:00 +10°C° 0 mm 2 mps 753 mmHg 84%
19:00 +10°C° 0 mm 2 mps 753 mmHg 83%
20:00 +9°C° 0 mm 2 mps 753 mmHg 85%
21:00 +8°C° 0 mm 2 mps 753 mmHg 87%
22:00 +8°C° 0 mm 1 mps 754 mmHg 88%
23:00 +7°C° 0 mm 1 mps 754 mmHg 90%

20 May, Thursday

Time Temperature Precipitation Wind Pressure Humidity
00:00 +6°C° 0 mm 2 mps 754 mmHg 91%
01:00 +6°C° 0 mm 2 mps 754 mmHg 92%
02:00 +6°C° 0 mm 2 mps 754 mmHg 93%
03:00 +5°C° 0 mm 2 mps 754 mmHg 94%
04:00 +5°C° 0 mm 2 mps 754 mmHg 94%
05:00 +7°C° 0 mm 2 mps 754 mmHg 90%
06:00 +8°C° 0 mm 2 mps 755 mmHg 85%
07:00 +10°C° 0 mm 3 mps 755 mmHg 81%
08:00 +11°C° 0 mm 3 mps 755 mmHg 75%
09:00 +12°C° 0 mm 4 mps 755 mmHg 68%
10:00 +13°C° 0 mm 4 mps 755 mmHg 62%
11:00 +14°C° 0.1 mm 5 mps 755 mmHg 60%
12:00 +14°C° 0.1 mm 6 mps 755 mmHg 57%
13:00 +15°C° 0.1 mm 6 mps 755 mmHg 55%
14:00 +14°C° 0.2 mm 6 mps 756 mmHg 58%
15:00 +13°C° 0.2 mm 6 mps 756 mmHg 61%
16:00 +11°C° 0.2 mm 6 mps 756 mmHg 64%
17:00 +12°C° 0 mm 5 mps 756 mmHg 66%
18:00 +10°C° 0 mm 5 mps 756 mmHg 69%
19:00 +10°C° 0 mm 4 mps 756 mmHg 72%
20:00 +7°C° 0 mm 4 mps 756 mmHg 77%
21:00 +7°C° 0 mm 3 mps 756 mmHg 82%
22:00 +5°C° 0 mm 3 mps 757 mmHg 87%
23:00 +4°C° 0 mm 3 mps 756 mmHg 88%

21 May, Friday

Time Temperature Precipitation Wind Pressure Humidity
00:00 +4°C° 0 mm 3 mps 756 mmHg 89%
01:00 +3°C° 0 mm 3 mps 756 mmHg 89%
02:00 +3°C° 0 mm 3 mps 756 mmHg 91%
03:00 +2°C° 0 mm 3 mps 756 mmHg 93%
04:00 +2°C° 0 mm 3 mps 756 mmHg 95%
05:00 +3°C° 0 mm 4 mps 756 mmHg 89%
06:00 +5°C° 0 mm 4 mps 756 mmHg 82%
07:00 +6°C° 0 mm 5 mps 756 mmHg 75%
08:00 +8°C° 0 mm 5 mps 755 mmHg 69%
09:00 +10°C° 0 mm 5 mps 755 mmHg 63%
10:00 +12°C° 0 mm 5 mps 755 mmHg 57%
11:00 +13°C° 0 mm 5 mps 755 mmHg 57%
12:00 +13°C° 0 mm 4 mps 754 mmHg 57%
13:00 +13°C° 0 mm 4 mps 754 mmHg 57%
14:00 +14°C° 0 mm 3 mps 753 mmHg 57%
15:00 +14°C° 0 mm 3 mps 753 mmHg 57%
16:00 +15°C° 0 mm 2 mps 753 mmHg 57%
17:00 +15°C° 0 mm 2 mps 752 mmHg 61%
18:00 +14°C° 0 mm 1 mps 752 mmHg 66%
19:00 +13°C° 0 mm 1 mps 751 mmHg 70%
20:00 +12°C° 0 mm 1 mps 751 mmHg 71%
21:00 +12°C° 0 mm 2 mps 751 mmHg 72%
22:00 +10°C° 0 mm 2 mps 751 mmHg 73%
23:00 +10°C° 0 mm 2 mps 750 mmHg 74%

22 May, Saturday

Time Temperature Precipitation Wind Pressure Humidity
00:00 +10°C° 0 mm 2 mps 750 mmHg 75%
01:00 +10°C° 0 mm 2 mps 750 mmHg 77%
02:00 +10°C° 0.1 mm 2 mps 749 mmHg 81%
03:00 +10°C° 0.1 mm 3 mps 749 mmHg 86%
04:00 +10°C° 0.1 mm 3 mps 748 mmHg 91%
05:00 +11°C° 0 mm 4 mps 748 mmHg 88%
06:00 +12°C° 0 mm 4 mps 748 mmHg 84%
07:00 +13°C° 0 mm 5 mps 747 mmHg 80%
08:00 +12°C° 0.3 mm 5 mps 747 mmHg 82%
09:00 +12°C° 0.3 mm 4 mps 748 mmHg 84%
10:00 +12°C° 0.3 mm 4 mps 748 mmHg 86%
11:00 +13°C° 0.4 mm 4 mps 748 mmHg 83%
12:00 +14°C° 0.4 mm 4 mps 748 mmHg 79%
13:00 +15°C° 0.4 mm 5 mps 748 mmHg 76%
14:00 +15°C° 0.6 mm 4 mps 748 mmHg 76%
15:00 +14°C° 0.6 mm 4 mps 748 mmHg 76%
16:00 +14°C° 0.6 mm 4 mps 749 mmHg 76%
17:00 +13°C° 0.2 mm 4 mps 749 mmHg 77%
18:00 +13°C° 0.2 mm 3 mps 749 mmHg 79%
19:00 +12°C° 0.2 mm 3 mps 749 mmHg 81%
20:00 +12°C° 0 mm 2 mps 749 mmHg 83%
21:00 +10°C° 0 mm 2 mps 750 mmHg 85%
22:00 +8°C° 0 mm 2 mps 750 mmHg 88%
23:00 +8°C° 0 mm 2 mps 750 mmHg 89%
Show more